DW2494 Weather Reports


time (UTC)temp
C
wind
direction
speed
KPH
gust
KPH
rain 1hr
cm
rain 24hr
cm
rain mn
cm
humidity
%
barometer
mb
20260906190821 38 298 8.0 16.1 0.00 0.00 0.00 39 1009.7
20260906190316 38 286 8.0 22.5 0.00 0.00 0.00 41 1009.8
20260906185830 38 355 14.5 22.5 0.00 0.00 0.00 41 1010.0
20260906184317 38 264 8.0 14.5 0.00 0.00 0.00 38 1010.0
20260906183329 39 61 3.2 12.9 0.00 0.00 0.00 36 1010.1
20260906182823 39 220 6.4 12.9 0.00 0.00 0.00 37 1010.3
20260906180830 38 321 3.2 11.3 0.00 0.00 0.00 41 1010.4
20260906180326 38 231 6.4 11.3 0.00 0.00 0.00 38 1010.6
20260906175821 38 280 8.0 14.5 0.00 0.00 0.00 39 1010.8
20260906175315 38 260 9.7 14.5 0.00 0.00 0.00 39 1010.8
20260906174830 39 298 6.4 17.7 0.00 0.00 0.00 39 1011.0
20260906174324 38 209 6.4 17.7 0.00 0.00 0.00 40 1011.1
20260906173824 38 11 4.8 9.7 0.00 0.00 0.00 40 1011.2
20260906173318 38 309 3.2 9.7 0.00 0.00 0.00 42 1011.3
20260906172812 38 93 4.8 12.9 0.00 0.00 0.00 43 1011.4
20260906171320 38 172 1.6 9.7 0.00 0.00 0.00 43 1011.6
20260906170815 38 244 4.8 9.7 0.00 0.00 0.00 44 1011.8
20260906170329 38 176 1.6 6.4 0.00 0.00 0.00 44 1011.8
20260906165825 37 38 1.6 11.3 0.00 0.00 0.00 45 1011.9
20260906165324 37 304 4.8 11.3 0.00 0.00 0.00 45 1011.9
20260906164818 37 290 3.2 6.4 0.00 0.00 0.00 45 1012.0
20260906164313 37 304 4.8 8.0 0.00 0.00 0.00 45 1012.0
20260906163828 37 262 3.2 8.0 0.00 0.00 0.00 47 1012.0
20260906163323 37 44 4.8 6.4 0.00 0.00 0.00 48 1012.1
20260906162816 36 204 1.6 8.0 0.00 0.00 0.00 49 1012.0
20260906162331 36 205 4.8 8.0 0.00 0.00 0.00 48 1012.0
20260906161829 36 74 3.2 6.4 0.00 0.00 0.00 49 1012.1
20260906161324 36 30 3.2 8.0 0.00 0.00 0.00 50 1012.2
20260906160819 36 360 4.8 8.0 0.00 0.00 0.00 49 1012.3
20260906155327 35 281 1.6 4.8 0.00 0.00 0.00 52 1012.3
20260906154821 35 144 1.6 4.8 0.00 0.00 0.00 53 1012.3
20260906153313 35 228 3.2 6.4 0.00 0.00 0.00 55 1012.2
20260906152829 34 81 3.2 6.4 0.00 0.00 0.00 56 1012.2
20260906152324 33 269 1.6 8.0 0.00 0.00 0.00 56 1012.2
20260906151818 33 103 1.6 4.8 0.00 0.00 0.00 57 1012.2
20260906151313 33 81 1.6 4.8 0.00 0.00 0.00 57 1012.2
20260906150827 33 74 1.6 4.8 0.00 0.00 0.00 59 1012.3
20260906150322 33 75 3.2 4.8 0.00 0.00 0.00 60 1012.2
20260906145816 32 167 1.6 4.8 0.00 0.00 0.00 61 1012.3
20260906145314 32 203 1.6 6.4 0.00 0.00 0.00 61 1012.3
20260906144829 32 212 3.2 6.4 0.00 0.00 0.00 61 1012.3
20260906144324 32 267 0.0 4.8 0.00 0.00 0.00 63 1012.3
20260906143315 31 233 3.2 8.0 0.00 0.00 0.00 65 1012.3
20260906142829 31 231 4.8 8.0 0.00 0.00 0.00 66 1012.4
20260906142324 31 184 1.6 6.4 0.00 0.00 0.00 66 1012.5
20260906141319 30 262 4.8 6.4 0.00 0.00 0.00 66 1012.3
20260906140814 30 253 1.6 8.0 0.00 0.00 0.00 69 1012.3
20260906140328 30 251 3.2 8.0 0.00 0.00 0.00 70 1012.4
20260906135823 30 244 3.2 6.4 0.00 0.00 0.00 70 1012.3
20260906134814 29 213 3.2 8.0 0.00 0.00 0.00 71 1012.3
20260906134329 28 247 4.8 8.0 0.00 0.00 0.00 73 1012.2
20260906133823 27 259 0.0 4.8 0.00 0.00 0.00 76 1012.2
20260906133322 26 261 1.6 4.8 0.00 0.00 0.00 84 1012.2
20260906132816 25 159 0.0 3.2 0.00 0.00 0.00 86 1012.1
20260906132331 25 159 1.6 3.2 0.00 0.00 0.00 86 1012.1
20260906131826 24 143 0.0 3.2 0.00 0.00 0.00 87 1012.1
20260906131320 24 142 1.6 4.8 0.00 0.00 0.00 87 1012.1
20260906130815 23 142 1.6 4.8 0.00 0.00 0.00 88 1012.0
20260906130330 23 227 0.0 1.6 0.00 0.00 0.00 88 1011.9
20260906125825 23 227 0.0 3.2 0.00 0.00 0.00 87 1011.8
20260906125324 23 227 1.6 3.2 0.00 0.00 0.00 87 1011.7
20260906124819 23 227 0.0 0.0 0.00 0.00 0.00 87 1011.6
20260906124313 23 227 0.0 0.0 0.00 0.00 0.00 87 1011.6
20260906123323 23 227 0.0 1.6 0.00 0.00 0.00 86 1011.6
20260906122818 23 307 0.0 1.6 0.00 0.00 0.00 87 1011.6
20260906121829 23 277 0.0 3.2 0.00 0.00 0.00 87 1011.4
20260906120824 23 120 0.0 1.6 0.00 0.00 0.00 87 1011.2
20260906120319 23 180 0.0 1.6 0.00 0.00 0.00 87 1011.3
20260906115813 23 360 0.0 1.6 0.00 0.00 0.00 87 1011.2
20260906115327 23 38 0.0 1.6 0.00 0.00 0.00 87 1011.2
20260906114823 23 80 0.0 0.0 0.00 0.00 0.00 87 1011.2
20260906114318 23 123 0.0 0.0 0.00 0.00 0.00 87 1011.2
20260906113832 23 123 0.0 0.0 0.00 0.00 0.00 87 1011.1
20260906113330 23 124 0.0 1.6 0.00 0.00 0.00 87 1011.1
20260906112322 23 124 0.0 1.6 0.00 0.00 0.00 87 1011.1
20260906111816 23 124 0.0 1.6 0.00 0.00 0.00 87 1011.1
20260906111330 23 124 0.0 1.6 0.00 0.00 0.00 87 1011.0
20260906110824 23 123 0.0 0.0 0.00 0.00 0.00 87 1011.0
20260906110319 23 123 0.0 0.0 0.00 0.00 0.00 87 1011.0
20260906105813 23 124 0.0 3.2 0.00 0.00 0.00 87 1011.0
20260906105331 23 124 0.0 3.2 0.00 0.00 0.00 88 1011.0
20260906104826 23 124 1.6 3.2 0.00 0.00 0.00 88 1011.1
20260906104321 23 123 0.0 0.0 0.00 0.00 0.00 88 1011.0
20260906103816 23 123 0.0 0.0 0.00 0.00 0.00 88 1011.0
20260906103331 23 123 0.0 3.2 0.00 0.00 0.00 88 1011.0
20260906102825 23 124 1.6 3.2 0.00 0.00 0.00 88 1010.9
20260906102320 23 124 0.0 0.0 0.00 0.00 0.00 88 1011.0
20260906101818 23 123 0.0 0.0 0.00 0.00 0.00 88 1010.8
20260906101313 23 124 0.0 0.0 0.00 0.00 0.00 88 1010.8
20260906100827 23 123 0.0 0.0 0.00 0.00 0.00 88 1010.9
20260906100322 23 123 0.0 0.0 0.00 0.00 0.00 88 1010.9
20260906095816 23 124 0.0 1.6 0.00 0.00 0.00 88 1010.8
20260906094324 23 123 0.0 0.0 0.00 0.00 0.00 88 1010.8
20260906093818 23 124 0.0 0.0 0.00 0.00 0.00 88 1010.8
20260906093315 23 123 0.0 0.0 0.00 0.00 0.00 88 1010.7
20260906092829 23 123 0.0 0.0 0.00 0.00 0.00 88 1010.6
20260906092323 23 123 0.0 0.0 0.00 0.00 0.00 88 1010.6
20260906091315 23 123 0.0 0.0 0.00 0.00 0.00 88 1010.6
20260906090829 23 124 0.0 0.0 0.00 0.00 0.00 88 1010.5
20260906090324 23 124 0.0 0.0 0.00 0.00 0.00 88 1010.5
20260906085319 23 123 0.0 0.0 0.00 0.00 0.00 88 1010.5
20260906084813 23 123 0.0 3.2 0.00 0.00 0.00 88 1010.4
20260906084328 23 124 1.6 3.2 0.00 0.00 0.00 88 1010.5
20260906083822 23 123 0.0 0.0 0.00 0.00 0.00 87 1010.3
20260906083316 23 123 0.0 1.6 0.00 0.00 0.00 87 1010.3
20260906082831 23 124 0.0 3.2 0.00 0.00 0.00 86 1010.3
20260906082325 23 124 0.0 1.6 0.00 0.00 0.00 86 1010.4
20260906081820 23 124 0.0 0.0 0.00 0.00 0.00 86 1010.3
20260906081318 23 124 0.0 0.0 0.00 0.00 0.00 86 1010.3
20260906080813 23 123 0.0 1.6 0.00 0.00 0.00 86 1010.3
20260906075824 24 124 1.6 1.6 0.00 0.00 0.00 86 1010.1
20260906075319 24 124 0.0 0.0 0.00 0.00 0.00 86 1010.1
20260906074813 24 124 0.0 0.0 0.00 0.00 0.00 85 1010.0
20260906073825 24 124 0.0 0.0 0.00 0.00 0.00 85 1009.9
20260906073323 24 123 0.0 0.0 0.00 0.00 0.00 85 1010.1
20260906072816 24 123 0.0 1.6 0.00 0.00 0.00 85 1010.1
20260906072331 25 124 0.0 1.6 0.00 0.00 0.00 84 1010.1
20260906071825 25 124 0.0 0.0 0.00 0.00 0.00 84 1010.2
20260906071321 25 124 0.0 0.0 0.00 0.00 0.00 83 1010.2
20260906070815 25 124 0.0 3.2 0.00 0.00 0.00 83 1010.2
20260906070330 25 123 0.0 3.2 0.00 0.00 0.00 83 1010.2
20260906065825 25 123 0.0 1.6 0.00 0.00 0.00 81 1010.3
20260906065324 25 123 0.0 0.0 0.00 0.00 0.00 81 1010.2
20260906064819 25 123 0.0 3.2 0.00 0.00 0.00 81 1010.1
20260906063830 26 123 3.2 3.2 0.00 0.00 0.00 80 1010.0
20260906063324 26 127 1.6 3.2 0.00 0.00 0.00 79 1010.1
20260906062819 26 127 0.0 1.6 0.00 0.00 0.00 78 1010.0
20260906062313 26 127 0.0 1.6 0.00 0.00 0.00 78 1010.0
20260906061828 26 127 0.0 3.2 0.00 0.00 0.00 77 1010.0
20260906061327 26 127 1.6 4.8 0.00 0.00 0.00 77 1010.1
20260906060821 26 127 3.2 4.8 0.00 0.00 0.00 77 1010.2
20260906060316 26 226 1.6 3.2 0.00 0.00 0.00 77 1010.2
20260906055327 27 226 1.6 3.2 0.00 0.00 0.00 76 1010.3
20260906054823 26 226 0.0 3.2 0.00 0.00 0.00 77 1010.3
20260906054317 26 226 0.0 6.4 0.00 0.00 0.00 78 1010.3
20260906053331 26 188 1.6 8.0 0.00 0.00 0.00 78 1010.4
20260906052825 26 78 0.0 3.2 0.00 0.00 0.00 78 1010.2
20260906052320 26 78 1.6 3.2 0.00 0.00 0.00 76 1010.2
20260906051815 27 78 0.0 4.8 0.00 0.00 0.00 75 1010.0
20260906051329 27 78 1.6 4.8 0.00 0.00 0.00 74 1010.0
20260906050321 26 68 3.2 6.4 0.00 0.00 0.00 76 1010.1
20260906045815 26 68 4.8 6.4 0.00 0.00 0.00 76 1010.1
20260906045314 26 128 1.6 3.2 0.00 0.00 0.00 77 1010.0
20260906044828 26 128 1.6 1.6 0.00 0.00 0.00 77 1009.9
20260906044323 26 128 0.0 3.2 0.00 0.00 0.00 76 1010.0
20260906042830 26 191 1.6 3.2 0.00 0.00 0.00 77 1010.0
20260906042324 26 201 0.0 1.6 0.00 0.00 0.00 78 1010.0
20260906041819 26 202 0.0 4.8 0.00 0.00 0.00 78 1010.0
20260906041317 26 201 1.6 4.8 0.00 0.00 0.00 78 1010.0
20260906040832 26 225 0.0 1.6 0.00 0.00 0.00 78 1009.8
20260906035823 27 225 0.0 1.6 0.00 0.00 0.00 78 1009.7
20260906035318 27 225 0.0 0.0 0.00 0.00 0.00 79 1009.8
20260906034832 27 225 0.0 0.0 0.00 0.00 0.00 77 1009.8
20260906034327 27 225 0.0 0.0 0.00 0.00 0.00 77 1009.8
20260906033821 27 225 0.0 0.0 0.00 0.00 0.00 76 1009.8
20260906033320 27 225 0.0 1.6 0.00 0.00 0.00 74 1009.6
20260906032815 27 225 0.0 1.6 0.00 0.00 0.00 74 1009.7
20260906032329 27 225 0.0 4.8 0.00 0.00 0.00 75 1009.8
20260906030817 27 223 0.0 0.0 0.00 0.00 0.00 73 1009.7
20260906030331 28 223 0.0 0.0 0.00 0.00 0.00 72 1009.8
20260906025825 28 223 0.0 0.0 0.00 0.00 0.00 72 1009.8
20260906024821 28 223 0.0 1.6 0.00 0.00 0.00 69 1009.5
20260906023328 28 223 1.6 1.6 0.00 0.00 0.00 69 1009.6
20260906022823 28 223 0.0 1.6 0.00 0.00 0.00 69 1009.5
20260906022318 28 223 0.0 1.6 0.00 0.00 0.00 68 1009.4
20260906021832 28 223 1.6 1.6 0.00 0.00 0.00 68 1009.4
20260906021326 28 223 1.6 1.6 0.00 0.00 0.00 69 1009.2
20260906020821 28 223 0.0 4.8 0.00 0.00 0.00 68 1009.1
20260906020320 29 225 3.2 4.8 0.00 0.00 0.00 69 1009.1
20260906015330 29 227 0.0 1.6 0.00 0.00 0.00 68 1008.9
20260906014321 30 227 0.0 1.6 0.00 0.00 0.00 65 1008.8
20260906013816 30 227 0.0 3.2 0.00 0.00 0.00 64 1008.8
20260906012323 31 227 0.0 0.0 0.00 0.00 0.00 60 1008.5
20260906011821 31 227 0.0 0.0 0.00 0.00 0.00 59 1008.5
20260906011315 31 227 0.0 0.0 0.00 0.00 0.00 57 1008.4
20260906010829 31 227 0.0 0.0 0.00 0.00 0.00 57 1008.3
20260906010324 32 227 0.0 1.6 0.00 0.00 0.00 57 1008.4
20260906005817 32 227 0.0 1.6 0.00 0.00 0.00 56 1008.3
20260906005332 32 227 0.0 3.2 0.00 0.00 0.00 56 1008.3
20260906004826 33 227 1.6 4.8 0.00 0.00 0.00 55 1008.3
20260906004321 33 227 1.6 4.8 0.00 0.00 0.00 51 1008.2
20260906003818 33 103 0.0 0.0 0.00 0.00 0.00 50 1008.2
20260906003333 34 103 0.0 0.0 0.00 0.00 0.00 49 1008.3
20260906002827 35 103 0.0 0.0 0.00 0.00 0.00 49 1008.2
20260906002321 35 103 0.0 0.0 0.00 0.00 0.00 46 1008.3
20260906000826 37 103 0.0 1.6 0.00 0.00 0.00 44 1008.2
20260906000321 37 103 0.0 1.6 0.00 0.00 0.00 45 1008.1
20260905235819 37 103 0.0 0.0 0.00 0.00 0.00 40 1008.1
20260905235313 37 103 0.0 1.6 0.00 0.00 0.00 42 1008.1
20260905234828 37 103 0.0 1.6 0.00 0.00 0.00 41 1008.1
20260905234322 37 104 0.0 3.2 0.00 0.00 0.00 41 1008.1
20260905233817 37 104 1.6 4.8 0.00 0.00 0.00 38 1008.0
20260905232828 38 110 1.6 4.8 0.00 0.00 0.00 39 1008.1
20260905232323 38 329 1.6 3.2 0.00 0.00 0.00 38 1008.1
20260905231821 38 327 1.6 3.2 0.00 0.00 0.00 38 1008.1
20260905230832 38 330 3.2 4.8 0.00 0.00 0.00 39 1008.0
20260905225823 38 48 3.2 6.4 0.00 0.00 0.00 39 1008.3
20260905225317 38 49 4.8 6.4 0.00 0.00 0.00 39 1008.3
20260905224832 38 355 3.2 6.4 0.00 0.00 0.00 39 1008.2
20260905224327 38 38 1.6 6.4 0.00 0.00 0.00 40 1008.2
20260905223821 38 78 3.2 6.4 0.00 0.00 0.00 39 1008.2
20260905223320 38 61 1.6 6.4 0.00 0.00 0.00 39 1008.2
20260905222814 38 360 3.2 9.7 0.00 0.00 0.00 39 1008.3
20260905222329 38 96 4.8 9.7 0.00 0.00 0.00 39 1008.3
20260905221823 38 69 3.2 8.0 0.00 0.00 0.00 39 1008.3
20260905221318 38 78 4.8 8.0 0.00 0.00 0.00 39 1008.4
20260905215329 38 290 6.4 14.5 0.00 0.00 0.00 38 1008.5
20260905214822 38 315 4.8 12.9 0.00 0.00 0.00 40 1008.5
20260905214316 38 289 6.4 12.9 0.00 0.00 0.00 39 1008.6
20260905213815 38 321 3.2 9.7 0.00 0.00 0.00 40 1008.7
20260905213329 38 333 6.4 12.9 0.00 0.00 0.00 39 1008.7
20260905212319 38 276 3.2 9.7 0.00 0.00 0.00 39 1008.8
20260905211812 38 360 4.8 12.9 0.00 0.00 0.00 40 1008.9
20260905211326 38 360 4.8 14.5 0.00 0.00 0.00 39 1009.1
20260905210315 38 309 8.0 12.9 0.00 0.00 0.00 40 1009.3
20260905205813 38 346 3.2 6.4 0.00 0.00 0.00 41 1009.3
20260905204823 38 293 3.2 9.7 0.00 0.00 0.00 40 1009.3
20260905203814 38 57 1.6 6.4 0.00 0.00 0.00 41 1009.4
20260905203328 37 355 1.6 6.4 0.00 0.00 0.00 41 1009.5
20260905202823 37 355 4.8 6.4 0.00 0.00 0.00 41 1009.6
20260905202317 36 197 0.0 3.2 0.00 0.00 0.00 45 1009.9
20260905201830 36 198 0.0 3.2 0.00 0.00 0.00 45 1010.0
20260905201329 36 198 1.6 8.0 0.00 0.00 0.00 44 1010.1
20260905200824 36 199 3.2 8.0 0.00 0.00 0.00 42 1010.2
20260905200318 37 82 1.6 11.3 0.00 0.00 0.00 43 1010.2
20260905195813 36 86 4.8 11.3 0.00 0.00 0.00 44 1010.3
20260905195327 36 25 3.2 6.4 0.00 0.00 0.00 43 1010.3
20260905194819 36 74 1.6 8.0 0.00 0.00 0.00 43 1010.4
20260905194313 37 82 4.8 8.0 0.00 0.00 0.00 41 1010.5
20260905193812 37 67 3.2 11.3 0.00 0.00 0.00 42 1010.5
20260905193327 37 103 3.2 11.3 0.00 0.00 0.00 44 1010.6
20260905192821 36 119 1.6 6.4 0.00 0.00 0.00 44 1010.6
20260905192315 37 120 4.8 11.3 0.00 0.00 0.00 43 1010.7
20260905191830 37 118 3.2 12.9 0.00 0.00 0.00 43 1010.7